weather.gov     
National Weather Service

Regional Weather Roundup
NWS Homepage
This page is being discontinued on March 12, 2014.
The same data is available at this site. Please update your bookmarks.
Thank you, and we apologize for the inconvenience.
Please send an email to SR-SRH.Webmaster@noaa.gov with any concerns.


Current Version
Previous Version:    01  02  03  04  05  06  07  08  09  10  11  12  13  14  15  16  17  18  19  20  21  22  23  24  25  26  27  28  29  30  
   31  32  33  34  35  36  37  38  39  40  41  42  43  44  45  46  47  48  49  50  51  52  53  54  55  
[Printable]
363
ASUS44 KOUN 212200
RWROK

WEATHER ROUNDUP FOR OKLAHOMA
NATIONAL WEATHER SERVICE NORMAN OK
500 PM CDT THU AUG 21 2014

NOTE: "FAIR" INDICATES FEW OR NO CLOUDS BELOW 12,000 FEET WITH NO
      SIGNIFICANT WEATHER AND/OR OBSTRUCTIONS TO VISIBILITY.

OKZ001>007-009>012-014-015-017-212300-
NORTHWEST OKLAHOMA AND THE PANHANDLE

CITY           SKY/WX    TMP DP  RH WIND       PRES   REMARKS
GAGE           SUNNY     99  64  31 S23G31    29.87F HX 101
ENID/WOODRING  MOSUNNY  102  66  30 S21G29    29.86F HX 107
$$

OKZ016-021>023-033>039-044-045-212300-
SOUTHWEST OKLAHOMA

CITY           SKY/WX    TMP DP  RH WIND       PRES   REMARKS
LAWTON/REGL    MOSUNNY  103  63  27 S16G25    29.87F HX 105
LAWTON/FT SILL MOSUNNY  102  65  30 S18G24    29.87F HX 105
FREDERICK      SUNNY    103  63  27 S16       29.85F HX 105
CLINTON        SUNNY    100  61  27 S23G30    29.91F HX 101
HOBART         SUNNY    101  60  25 SW21      29.89F HX 101
$$

OKZ018>020-024>031-212300-
CENTRAL OKLAHOMA

CITY           SKY/WX    TMP DP  RH WIND       PRES   REMARKS
OKLAHOMA CITY  MOSUNNY   97  68  38 SE16G25   29.91F HX 102
OKC/WILEY POST SUNNY     98  66  34 S20G26    29.90F HX 101
OKC/TINKER AFB SUNNY     96  68  39 S16G23    29.92F HX 101
STILLWATER     SUNNY     98  68  37 S17G25    29.90F HX 103
GUTHRIE        SUNNY     97  69  40 S18G24    29.89F HX 103
$$

OKZ008-013-054>072-212300-
NORTHEAST OKLAHOMA

CITY           SKY/WX    TMP DP  RH WIND       PRES   REMARKS
TULSA          MOSUNNY   96  71  44 S16       29.91F HX 103
TULSA/JONES    MOSUNNY   97  69  40 S13G23    29.92S HX 103
PONCA CITY     SUNNY     98  67  36 S9G22     29.88F HX 102
BARTLESVILLE   SUNNY     94  72  48 S14G24    29.91F HX 102
MUSKOGEE       SUNNY     91  72  53 S14       29.96F HX  98
$$

OKZ032-040>043-046>053-073>077-212300-
SOUTH CENTRAL/SOUTHEAST OKLAHOMA

CITY           SKY/WX    TMP DP  RH WIND       PRES   REMARKS
MCALESTER      SUNNY     92  71  50 S9G20     29.97F HX  98
$$





U.S. Dept. of Commerce
NOAA National Weather Service
1325 East West Highway
Silver Spring, MD 20910
E-mail: w-nws.webmaster@noaa.gov
Page last modified: May 16, 2007
NATIONAL WEATHER SERVICE: for Safety, for Work, for Fun - FOR LIFE